Overview Statistics Trail Chart Weather Telemetry Raw packets
 

This is the latest recevied weather packets stored in our database for station/object K4MUW-4. If no packets are shown the sender has not sent any weather packets the latest 10 day(s).

<< 86 87 88 89 90 91 92 >>
Time Temp. Humidity Pressure Rain* Wind** Luminosity Snow
1788038221 31.67° C 40% 1015 hPa 0 mm 0 m/s - -
1788037921 31.67° C 40% 1015 hPa 0 mm 0 m/s - -
1788037621 31.67° C 39% 1015 hPa 0 mm 0 m/s - -
1788037320 31.67° C 40% 1015 hPa 0 mm 0 m/s - -
1788037020 32.22° C 40% 1015 hPa 0 mm 0 m/s - -
1788036719 32.22° C 39% 1015 hPa 0 mm 1.34 m/s, 194° - -
1788036451 32.22° C 38% 1015 hPa 0 mm 0 m/s - -
1788036419 32.22° C 38% 1015 hPa 0 mm 0 m/s - -
1788036125 32.22° C 40% 1015 hPa 0 mm 0 m/s - -
1788035822 32.22° C 39% 1015 hPa 0 mm 1.34 m/s, 174° - -
1788035518 31.67° C 40% 1015 hPa 0 mm 1.79 m/s, 191° - -
1788035213 31.67° C 40% 1015 hPa 0 mm 2.24 m/s, 203° - -
1788035161 31.67° C 40% 1015 hPa 0 mm 1.79 m/s, 180° - -
1788034913 31.67° C 40% 1015 hPa 0 mm 1.79 m/s, 180° - -
1788034613 32.22° C 40% 1015 hPa 0 mm 1.79 m/s, 241° - -
1788034312 32.22° C 39% 1016 hPa 0 mm 3.13 m/s, 200° - -
1788034012 32.22° C 41% 1016 hPa 0 mm 1.79 m/s, 187° - -
1788033712 32.22° C 41% 1016 hPa 0 mm 0 m/s - -
1788033411 31.67° C 41% 1016 hPa 0 mm 1.79 m/s, 184° - -
1788033111 32.22° C 42% 1016 hPa 0 mm 1.79 m/s, 195° - -
1788032811 31.67° C 42% 1016 hPa 0 mm 1.79 m/s, 133° - -
1788032510 31.67° C 42% 1016 hPa 0 mm 1.34 m/s, 233° - -
1788032210 31.67° C 42% 1016 hPa 0 mm 1.79 m/s, 190° - -
1788031910 31.67° C 42% 1016 hPa 0 mm 3.13 m/s, 211° - -
1788031609 31.67° C 43% 1016 hPa 0 mm 2.24 m/s, 178° - -

* Rain latest hour (hover to see other rain measurements)
** Current wind speed in m/s (hover to see current wind gust speed)